TimeCST,TemperatureF,Dew PointF,Humidity,Sea Level PressureIn,VisibilityMPH,Wind Direction,Wind SpeedMPH,Gust SpeedMPH,PrecipitationIn,Events,Conditions,WindDirDegrees,DateUTC
12:52 AM,30.9,19.0,61,29.86,10.0,NW,13.8,-,N/A,,Clear,310,2012-11-25 06:52:00
1:52 AM,26.1,18.0,71,29.87,10.0,NW,9.2,-,N/A,,Clear,310,2012-11-25 07:52:00
3:52 AM,27.0,19.9,75,29.91,10.0,NNW,10.4,-,N/A,,Clear,330,2012-11-25 09:52:00
4:37 AM,28.4,24.8,86,29.88,10.0,North,19.6,-,N/A,,Mostly Cloudy,350,2012-11-25 10:37:00
4:52 AM,30.0,24.1,79,29.93,10.0,North,15.0,23.0,N/A,,Overcast,350,2012-11-25 10:52:00
6:52 AM,28.9,24.1,82,29.99,10.0,NNW,15.0,20.7,N/A,,Overcast,340,2012-11-25 12:52:00
7:52 AM,28.9,24.1,82,30.00,9.0,NNW,13.8,-,N/A,,Overcast,340,2012-11-25 13:52:00
8:52 AM,27.0,21.9,81,30.04,9.0,NNW,12.7,-,N/A,,Overcast,330,2012-11-25 14:52:00
9:52 AM,28.0,21.9,78,30.04,10.0,NNW,13.8,-,N/A,,Overcast,340,2012-11-25 15:52:00
10:52 AM,28.0,21.0,75,30.07,10.0,NW,11.5,-,N/A,,Overcast,320,2012-11-25 16:52:00
11:49 AM,30.2,21.2,69,30.00,10.0,NW,10.4,-,N/A,,Scattered Clouds,320,2012-11-25 17:49:00
11:52 AM,30.0,21.0,69,30.04,10.0,NW,9.2,-,N/A,,Partly Cloudy,310,2012-11-25 17:52:00
12:52 PM,34.0,21.9,61,30.03,10.0,WNW,11.5,-,N/A,,Clear,300,2012-11-25 18:52:00
1:52 PM,36.0,21.9,57,30.02,10.0,NNW,10.4,-,N/A,,Clear,330,2012-11-25 19:52:00
2:52 PM,36.0,21.9,57,30.03,10.0,NW,9.2,-,N/A,,Clear,310,2012-11-25 20:52:00
3:52 PM,37.0,21.9,54,30.04,10.0,NW,9.2,-,N/A,,Clear,320,2012-11-25 21:52:00
4:52 PM,34.0,21.9,61,30.05,10.0,NW,9.2,-,N/A,,Mostly Cloudy,310,2012-11-25 22:52:00
5:52 PM,32.0,21.0,64,30.06,10.0,North,9.2,-,N/A,,Clear,10,2012-11-25 23:52:00
6:52 PM,30.0,19.9,66,30.09,10.0,North,9.2,-,N/A,,Clear,10,2012-11-26 00:52:00
7:52 PM,27.0,19.0,72,30.12,10.0,North,3.5,-,N/A,,Clear,350,2012-11-26 01:52:00
8:52 PM,25.0,18.0,75,30.14,10.0,Calm,Calm,-,N/A,,Clear,0,2012-11-26 02:52:00
9:52 PM,25.0,18.0,75,30.16,10.0,WNW,6.9,-,N/A,,Scattered Clouds,290,2012-11-26 03:52:00
10:52 PM,27.0,19.9,75,30.19,10.0,North,8.1,-,N/A,,Partly Cloudy,350,2012-11-26 04:52:00
11:52 PM,26.1,16.0,66,30.22,10.0,North,9.2,-,N/A,,Scattered Clouds,360,2012-11-26 05:52:00